Weather History for Eureka, NV

Change the Weather History Date:

Saturday, December 7, 2013

  Actual Average Record
Temperature  
Mean Temperature 11 °F 26 °F  
Max Temperature 27 °F 40 °F 60 °F (1981)
Min Temperature -6 °F 13 °F -6 °F (2013)
Degree Days  
Heating Degree Days 54 39  
Month to date heating degree days 329 264  
Since 1 July heating degree days 1940 2023  
Cooling Degree Days 0 0  
Month to date cooling degree days 0 0  
Year to date cooling degree days 585 288  
Moisture  
Dew Point 9 °F    
Average Humidity 67    
Maximum Humidity 88    
Minimum Humidity 45    
Precipitation  
Precipitation 0.06 in 0.02 in 0.77 in (2007)
Month to date precipitation 0.37 0.12  
Year to date precipitation 7.84 8.51  
Sea Level Pressure  
Sea Level Pressure 29.80 in    
Wind  
Wind Speed 12 mph (WSW)    
Max Wind Speed 26 mph    
Max Gust Speed 32 mph    
T = Trace of Precipitation, MM = Missing Value Source: NWS Daily Summary

Daily Weather History Graph

Daily Weather History Graph

Search for Another Location

Airport:

Trip Planner

Search our weather history database for the weather conditions in past years. The results will help you decide how hot, cold, wet, or windy it might be!

Date:

Astronomy

Dec. 07, 2013 Rise Set
Actual Time 6:51 AM PST 4:19 PM PST
Civil Twilight 6:21 AM PST 4:49 PM PST
Nautical Twilight 5:47 AM PST 5:23 PM PST
Astronomical Twilight 5:15 AM PST 5:56 PM PST
Moon 10:40 AM PST (12/7) 10:05 PM PST (12/7)
Length of Visible Light 10h 28m
Length of Day
9h 28m
Waxing Crescent, 30% of the Moon is Illuminated
Dec 7
Waxing Crescent
Dec 9
First Quarter
Dec 17
Full
Dec 25
Last Quarter
Jan 1
New

Hourly Weather History & Observations

Time (PST) Temp. Windchill Dew Point Humidity Pressure Visibility Wind Dir Wind Speed Gust Speed Precip Events Conditions
12:53 AM 19.9 °F 4.3 °F 12.0 °F 71% 29.76 in - South 19.6 mph - N/A   Unknown
1:53 AM 19.9 °F 3.5 °F 12.0 °F 71% 29.73 in - SSE 21.9 mph 29.9 mph N/A   Unknown
2:53 AM 21.0 °F 8.1 °F 14.0 °F 74% 29.68 in - SE 13.8 mph 31.1 mph N/A   Unknown
3:53 AM 24.1 °F - 14.0 °F 65% 29.65 in - North - - N/A   Unknown
4:53 AM 23.0 °F 10.6 °F 14.0 °F 68% 29.66 in - WSW 13.8 mph 19.6 mph N/A   Unknown
5:53 AM 23.0 °F 10.1 °F 14.0 °F 68% 29.65 in - SSW 15.0 mph - N/A   Unknown
6:53 AM 23.0 °F 14.7 °F 12.9 °F 65% 29.67 in - Variable 6.9 mph - N/A   Unknown
7:53 AM 21.0 °F 10.6 °F 14.0 °F 74% 29.70 in - SSW 9.2 mph - N/A   Unknown
8:53 AM 26.1 °F 14.0 °F 14.0 °F 60% 29.70 in - South 15.0 mph - N/A   Unknown
9:53 AM 24.1 °F 10.1 °F 17.1 °F 75% 29.70 in - West 18.4 mph 24.2 mph N/A   Unknown
10:53 AM 23.0 °F 9.6 °F 16.0 °F 74% 29.69 in - West 16.1 mph - 0.05 in   Unknown
11:53 AM 24.1 °F 13.7 °F 14.0 °F 65% 29.69 in - WNW 10.4 mph - N/A   Unknown
12:53 PM 24.1 °F 15.2 °F 10.9 °F 57% 29.71 in - WNW 8.1 mph - N/A   Unknown
1:53 PM 25.0 °F 13.1 °F 8.1 °F 49% 29.71 in - NW 13.8 mph - N/A   Unknown
2:53 PM 19.9 °F 4.3 °F 1.0 °F 44% 29.75 in - WNW 19.6 mph 26.5 mph N/A   Unknown
3:53 PM 17.1 °F 4.3 °F 3.0 °F 54% 29.80 in - WNW 11.5 mph - N/A   Unknown
4:53 PM 17.1 °F 2.0 °F 6.1 °F 62% 29.83 in - West 16.1 mph - N/A   Unknown
5:53 PM 16.0 °F 2.3 °F 12.0 °F 84% 29.88 in - NNW 12.7 mph - 0.01 in   Unknown
6:53 PM 10.0 °F -0.9 °F 6.1 °F 84% 29.95 in - NNW 6.9 mph - N/A   Unknown
7:53 PM 10.9 °F 1.4 °F 7.0 °F 84% 29.99 in - NNW 5.8 mph - N/A   Unknown
8:53 PM 6.1 °F - 3.0 °F 87% 30.01 in - Calm Calm - N/A   Unknown
9:53 PM 1.9 °F -7.6 °F -2.0 °F 83% 30.04 in - SW 4.6 mph - N/A   Unknown
10:53 PM -0.0 °F -9.9 °F -4.0 °F 83% 30.09 in - South 4.6 mph - N/A   Unknown
11:53 PM 1.0 °F - -5.1 °F 75% 30.10 in - Calm Calm - N/A   Unknown